"Time","Temp","Dewpoint","Humidity","Pressure","Direction","Speed","Gust","Precip","PrecipRate"
"00:04:58","74.5","70","86","29.97","184","0","1.2","0.00","0.00"
"00:09:57","74.6","70","85.5","29.97","184","0","2","0.00","0.00"
"00:14:57","74.7","69.9","85","29.97","184","0.2","2.3","0.00","0.00"
"00:19:56","74.7","69.9","85","29.97","184","0.3","1.2","0.00","0.00"
"00:24:59","74.7","69.7","84.5","29.97","184","0.4","2.3","0.00","0.00"
"00:29:58","74.7","69.5","84","29.97","184","0.6","3.5","0.00","0.00"
"00:34:57","74.7","69.5","83.9","29.97","287","0.7","2.3","0.00","0.00"
"00:39:57","74.8","69.4","83.3","29.97","289","0.2","1.2","0.00","0.00"
"00:44:57","74.8","69.3","83","29.97","289","0.1","1.2","0.00","0.00"
"00:49:56","74.7","69.2","83","29.97","289","0.5","2.3","0.00","0.00"
"00:54:59","74.6","69.1","83","29.97","289","0.1","2.3","0.00","0.00"
"00:59:58","74.6","69.1","83","29.97","289","0.1","3.5","0.00","0.00"
"01:04:57","74.4","69.1","83.4","29.97","289","0","0","0.00","0.00"
"01:09:56","74.3","69.1","84","29.97","289","0.1","2.3","0.00","0.00"
"01:14:46","74.2","69.1","84","29.97","289","0","0","0.00","0.00"
"01:19:57","74","69.2","84.9","29.97","289","0","0","0.00","0.00"
"01:24:56","73.9","69.1","85","29.97","288","0.3","3","0.00","0.00"
"01:29:15","73.8","68.8","84.3","29.97","288","1","3.5","0.00","0.00"
"01:34:58","73.8","68.7","84","29.96","288","0.5","2.3","0.00","0.00"
"01:39:59","73.7","68.5","83.8","29.96","288","0.5","2.3","0.00","0.00"
"01:44:58","73.8","68.4","83.2","29.96","289","0.9","4","0.00","0.00"
"01:49:57","74","68.2","82.1","29.96","294","0.9","3.5","0.00","0.00"
"01:54:56","74.2","68.1","81.3","29.96","290","0.1","1.2","0.00","0.00"
"01:59:59","74.4","68.2","81","29.96","290","0.4","2.3","0.00","0.00"
"02:04:58","74.5","68.3","81","29.96","290","0.9","3.5","0.00","0.00"
"02:09:57","74.6","68.4","81","29.96","290","0.4","3","0.00","0.00"
"02:14:57","74.6","68.4","81","29.96","290","0.9","3.5","0.00","0.00"
"02:19:56","74.5","68.3","81","29.96","290","0.7","2.3","0.00","0.00"
"02:24:59","74.4","68.2","81","29.96","290","0.3","2.3","0.00","0.00"
"02:29:58","74.2","68","81","29.96","290","0.5","2.3","0.00","0.00"
"02:34:57","74","68.2","81.9","29.96","296","1.1","4","0.00","0.00"
"02:39:58","73.9","68.1","82","29.96","298","0.6","3.5","0.00","0.00"
"02:44:57","73.8","68","82","29.96","299","0.4","3.5","0.00","0.00"
"02:49:56","73.7","67.9","82","29.96","301","1.5","4","0.00","0.00"
"02:54:59","73.6","67.8","82","29.96","312","1","3.5","0.00","0.00"
"02:59:58","73.5","67.9","82.6","29.96","325","1","3.5","0.00","0.00"
"03:04:58","73.4","67.9","83","29.96","325","0.2","2","0.00","0.00"
"03:09:57","73.3","67.8","83","29.96","326","1.3","4","0.00","0.00"
"03:14:58","73.3","67.8","83","29.96","327","0.7","2.3","0.00","0.00"
"03:19:57","73.2","68","83.8","29.96","327","0.7","4","0.00","0.00"
"03:24:56","73.1","68","84","29.96","324","0.4","2.3","0.00","0.00"
"03:29:59","73","67.9","84","29.96","271","0.5","4","0.00","0.00"
"03:34:58","72.8","67.7","84","29.96","269","0.4","2.3","0.00","0.00"
"03:39:59","72.7","67.6","84","29.96","269","0.6","3.5","0.00","0.00"
"03:44:58","72.6","67.7","84.9","29.96","270","0.4","3.5","0.00","0.00"
"03:49:58","72.5","67.7","85","29.96","270","0.3","3","0.00","0.00"
"03:54:57","72.4","67.6","85","29.96","270","0.1","2.3","0.00","0.00"
"03:59:56","72.3","67.5","85","29.96","270","0.1","1.2","0.00","0.00"
"04:04:58","72.1","67.3","85","29.96","270","0","1.2","0.00","0.00"
"04:09:57","72","67.4","85.4","29.96","270","0.2","2.3","0.00","0.00"
"04:14:38","71.9","67.5","86","29.96","270","0.3","2.3","0.00","0.00"
"04:19:58","71.7","67.3","86","29.96","270","0.2","1.2","0.00","0.00"
"04:24:57","71.6","67.2","86","29.96","270","0","1.2","0.00","0.00"
"04:29:57","71.5","67.1","86","29.96","270","0","0","0.00","0.00"
"04:34:56","71.4","67","86.2","29.96","270","0","0","0.00","0.00"
"04:39:57","71.2","67","86.6","29.96","270","0","0","0.00","0.00"
"04:44:56","71.1","67","87","29.96","270","0","0","0.00","0.00"
"04:49:56","70.9","67","87.3","29.96","270","0","0","0.00","0.00"
"04:54:59","70.8","66.9","87.4","29.96","270","0","1","0.00","0.00"
"04:59:58","70.7","67","88","29.96","270","0.1","1.2","0.00","0.00"
"05:04:56","70.6","66.9","88","29.96","270","0.1","1.2","0.00","0.00"
"05:09:59","70.4","66.7","88","29.96","270","0.2","2.3","0.00","0.00"
"05:14:56","70.4","66.7","88","29.96","270","0.4","4","0.00","0.00"
"05:19:59","70.4","66.7","88","29.96","271","0","0","0.00","0.00"
"05:24:59","70.4","66.7","88","29.96","271","0","1","0.00","0.00"
"05:29:58","70.2","66.6","88.4","29.97","270","0.4","2.3","0.00","0.00"
"05:34:57","70.3","66.9","89","29.97","271","0.9","3.5","0.00","0.00"
"05:39:58","70.4","67.1","89.4","29.97","271","0","2.3","0.00","0.00"
"05:44:57","70.4","67","89","29.97","271","0.5","2.3","0.00","0.00"
"05:49:56","70.3","66.9","89","29.97","271","0.5","2.3","0.00","0.00"
"05:54:56","70.2","66.8","89","29.97","271","0","0","0.00","0.00"
"05:59:59","70.1","66.7","89","29.98","271","0","1.2","0.00","0.00"
"06:04:59","69.9","66.7","89.7","29.98","271","0.1","2.3","0.00","0.00"
"06:09:59","69.8","66.7","90","29.98","271","0.1","1.2","0.00","0.00"
"06:14:56","69.8","66.7","90","29.98","271","0","0","0.00","0.00"
"06:19:59","69.9","66.7","89.8","29.98","271","0.1","1.2","0.00","0.00"
"06:24:59","69.9","66.8","90","29.98","271","0.2","1.2","0.00","0.00"
"06:29:58","69.8","66.7","90","29.98","271","0","1.2","0.00","0.00"
"06:34:58","69.7","66.6","90","29.98","271","0","1.2","0.00","0.00"
"06:39:59","69.5","66.4","90","29.98","271","0","1.2","0.00","0.00"
"06:44:58","69.4","66.3","90.1","29.99","271","0.1","1.2","0.00","0.00"
"06:49:58","69.2","66.5","91","29.99","271","0","1.2","0.00","0.00"
"06:54:58","69.1","66.4","91","29.99","271","0","0","0.00","0.00"
"06:59:57","69.1","66.4","91","30.00","271","0","0","0.00","0.00"
"07:04:56","69.1","66.4","91","30.00","271","0","0","0.00","0.00"
"07:09:59","69.1","66.6","91.8","30.00","271","0","0","0.00","0.00"
"07:14:56","69.1","66.7","92","30.01","271","0","0","0.00","0.00"
"07:19:59","69.1","66.7","92","30.01","271","0","0","0.00","0.00"
"07:24:58","69.1","66.8","92.1","30.01","271","0","0","0.00","0.00"
"07:29:57","69.4","67.1","92.4","30.01","271","0","0","0.00","0.00"
"07:34:59","69.7","67.3","92","30.01","271","0","0","0.00","0.00"
"07:39:56","70.1","67.5","91.4","30.01","337","1.4","5","0.00","0.00"
"07:44:59","70.5","67.4","90","30.02","349","0.7","3.5","0.00","0.00"
"07:49:57","70.8","67.6","89.5","30.02","350","0.7","3.5","0.00","0.00"
"07:54:56","71","67.6","89","30.02","349","0.3","3.5","0.00","0.00"
"07:59:59","71.1","67.7","89","30.02","349","0.9","3.5","0.00","0.00"
"08:04:57","71.3","67.6","88.2","30.02","350","0.9","3.5","0.00","0.00"
"08:09:56","71.4","67.8","88.4","30.02","349","0","0","0.00","0.00"
"08:14:57","71.5","67.9","88.4","30.02","349","0.7","3.5","0.00","0.00"
"08:19:55","71.7","68","88","30.02","349","0.9","2.3","0.00","0.00"
"08:24:58","72","68.2","87.8","30.02","349","1","6","0.00","0.00"
"08:29:56","72.4","68.3","87","30.03","293","2","5","0.00","0.00"
"08:34:59","72.9","68.7","86.7","30.03","327","2","5","0.00","0.00"
"08:39:59","73.3","68.9","86.1","30.03","327","2.1","6","0.00","0.00"
"08:44:58","73.8","69.3","85.8","30.03","340","1.2","5","0.00","0.00"
"08:49:56","74.3","69.4","84.8","30.03","335","2.1","6","0.00","0.00"
"08:54:59","74.6","69.5","84","30.03","337","2","5.8","0.00","0.00"
"08:59:57","75","69.6","83.5","30.03","341","1.5","4.6","0.00","0.00"
"09:04:59","75.4","70.2","83.9","30.03","344","0.4","2.3","0.00","0.00"
"09:09:58","76","70.2","82.3","30.03","338","1.1","7","0.00","0.00"
"09:14:58","76.6","70.5","81.5","30.03","340","1.8","7","0.00","0.00"
"09:19:57","77.1","70.5","80.1","30.03","337","3.2","6.9","0.00","0.00"
"09:24:56","77.6","70.5","78.9","30.03","345","2.7","12","0.00","0.00"
"09:29:58","78","70.3","77.3","30.03","341","3.7","10.4","0.00","0.00"
"09:34:57","78.2","70.6","77.7","30.03","342","3.5","10","0.00","0.00"
"09:39:57","78.4","70.5","76.7","30.03","327","3","10.4","0.00","0.00"
"09:44:56","78.7","70.6","76.3","30.03","344","2.9","10.4","0.00","0.00"
"09:49:56","79","70.7","75.9","30.03","338","3.8","11.5","0.00","0.00"
"09:54:56","79.2","70.9","75.7","30.03","355","1.2","4.6","0.00","0.00"
"09:59:56","79.6","70.8","74.7","30.04","340","5","10.4","0.00","0.00"
"10:04:59","79.4","70.5","74.2","30.04","335","3.9","9.2","0.00","0.00"
"10:09:56","79.6","70.7","74.2","30.04","335","3.5","12","0.00","0.00"
"10:14:57","79.9","71","74.2","30.04","340","2.4","5","0.00","0.00"
"10:19:57","80.2","70.7","73","30.04","335","3.7","10","0.00","0.00"
"10:24:57","80.2","70.6","72.4","30.04","334","4.9","10.4","0.00","0.00"
"10:29:57","80.3","70.9","73.2","30.04","342","3.5","10.4","0.00","0.00"
"10:34:57","80.7","71.1","72.8","30.04","339","1.9","10.4","0.00","0.00"
"10:39:59","81.2","71.7","72.8","30.04","339","1.1","4","0.00","0.00"
"10:44:59","81.7","71.8","71.9","30.04","339","1.2","4","0.00","0.00"
"10:49:59","82.2","71.8","70.7","30.04","336","2.1","7","0.00","0.00"
"10:54:59","82.6","72","70.6","30.04","338","1.5","4.6","0.00","0.00"
"10:59:57","82.8","71.6","69.2","30.04","343","3.2","6","0.00","0.00"
"11:04:56","82.7","71.3","68.6","30.04","351","2.3","7","0.00","0.00"
"11:09:56","83","71.5","68.5","30.04","345","0.9","3.5","0.00","0.00"
"11:14:58","83.1","71.4","67.8","30.04","338","3.1","9.2","0.00","0.00"
"11:19:58","83.2","72","68.9","30.04","337","2","8.1","0.00","0.00"
"11:24:58","83.7","71.8","67.6","30.04","333","1.9","7","0.00","0.00"
"11:29:58","84.1","71.6","66.3","30.04","322","2","6.9","0.00","0.00"
"11:34:58","84.4","71.7","65.9","30.04","356","1.2","3.5","0.00","0.00"
"11:39:56","84.5","71.3","64.8","30.04","328","2.1","6","0.00","0.00"
"11:44:56","84.3","71.4","65.4","30.04","331","3.3","10","0.00","0.00"
"11:49:56","84.1","70.6","64","30.04","332","4","11","0.00","0.00"
"11:54:56","83.8","70.5","64.3","30.04","330","2.8","6","0.00","0.00"
"11:59:59","83.8","70.4","64.2","30.04","340","3.5","7","0.00","0.00"
"12:04:59","83.8","70.9","65.2","30.04","346","2.8","7","0.00","0.00"
"12:09:59","84","71","65.1","30.04","336","3.2","10","0.00","0.00"
"12:14:56","84.2","70.6","63.7","30.04","340","5.1","11","0.00","0.00"
"12:19:56","83.9","70.6","64.3","30.03","336","2.7","10.4","0.00","0.00"
"12:24:57","84.2","71.2","65.2","30.03","328","2.5","6","0.00","0.00"
"12:29:57","84.4","71.3","65","30.03","304","2.8","9.2","0.00","0.00"
"12:34:57","84.5","71.3","64.8","30.03","339","2.5","7","0.00","0.00"
"12:39:59","84.9","71.2","63.8","30.03","329","3.7","10.4","0.00","0.00"
"12:44:59","84.7","71.2","64.1","30.03","301","2.9","9","0.00","0.00"
"12:49:59","84.8","71.2","63.7","30.03","336","2.9","9.2","0.00","0.00"
"12:54:59","85.3","71.7","63.9","30.03","313","3","6.9","0.00","0.00"
"12:59:59","85.7","71.5","62.6","30.03","319","1.7","10","0.00","0.00"
"13:04:59","85.9","71.5","62.3","30.02","340","3.4","10.4","0.00","0.00"
"13:09:59","85.8","71.4","62.2","30.02","347","1.8","4","0.00","0.00"
"13:14:57","85.8","71.7","63","30.02","332","1.4","5","0.00","0.00"
"13:19:57","85.9","71.8","62.8","30.02","341","3.5","11.5","0.00","0.00"
"13:24:57","86.4","71.3","60.9","30.02","345","2.3","7","0.00","0.00"
"13:29:57","86.9","71.4","60.3","30.02","340","3.8","9.2","0.00","0.00"
"13:34:57","87.2","70.8","58.5","30.02","332","3.1","7","0.00","0.00"
"13:39:58","87.5","72","60.1","30.02","325","1.6","4.6","0.00","0.00"
"13:44:58","87.9","71.7","58.7","30.02","296","2.3","6","0.00","0.00"
"13:49:58","88.1","71.6","58.3","30.01","276","2.7","7","0.00","0.00"
"13:54:57","88.2","71.5","57.9","30.01","314","3.5","9.2","0.00","0.00"
"13:59:57","87.9","71.5","58.4","30.01","332","2.6","6.9","0.00","0.00"
"14:04:57","88","70.7","56.7","30.01","342","2.6","9.2","0.00","0.00"
"14:09:57","88","70.7","56.6","30.01","337","2.2","7","0.00","0.00"
"14:14:59","88.2","70.6","56.1","30.01","338","1.7","10.4","0.00","0.00"
"14:19:59","88.2","69.6","54.2","30.00","329","2.2","10.4","0.00","0.00"
"14:24:59","87.5","69.6","55.6","30.00","332","2.8","7","0.00","0.00"
"14:29:59","86.5","69.9","57.8","30.00","331","3.3","7","0.00","0.00"
"14:34:59","86.3","70.7","59.8","30.00","299","2.1","5","0.00","0.00"
"14:39:57","86.9","70.3","57.9","30.00","306","2.2","7","0.00","0.00"
"14:44:57","87.4","70.4","57.2","30.00","282","1.6","4","0.00","0.00"
"14:49:57","88.1","70.4","55.9","29.99","290","3.5","11.5","0.00","0.00"
"14:54:56","88.3","70.4","55.5","29.99","343","1.9","10.4","0.00","0.00"
"14:59:57","88.7","71.1","56.2","29.99","304","2.9","11","0.00","0.00"
"15:04:56","88.9","71.3","56.3","29.99","341","4.7","11.5","0.00","0.00"
"15:09:56","88.9","71","55.6","29.99","338","2.1","6","0.00","0.00"
"15:14:58","89.1","71","55.5","29.99","347","3.3","7","0.00","0.00"
"15:19:58","89.2","71.1","55.3","29.98","343","2.1","7","0.00","0.00"
"15:24:58","89.3","70.5","54","29.98","341","2","6.9","0.00","0.00"
"15:29:58","89.5","70.7","54","29.98","326","1.7","5.8","0.00","0.00"
"15:34:58","89.7","71.2","54.6","29.98","334","3.5","8.1","0.00","0.00"
"15:39:56","89.7","71.8","55.9","29.98","334","2.1","6.9","0.00","0.00"
"15:44:56","89.9","71.1","54.1","29.98","340","1.6","6","0.00","0.00"
"15:49:56","89.9","70.6","53.3","29.97","330","3.1","8.4","0.00","0.00"
"15:54:56","90","70.9","53.6","29.97","335","1.7","5.8","0.00","0.00"
"15:59:56","90.4","70.8","52.8","29.97","61","2.6","7.2","0.00","0.00"
"16:04:59","90.6","70.5","52","29.97","343","1.6","4.8","0.00","0.00"
"16:09:55","90.4","70.5","52.3","29.97","0","1.3","6","0.00","0.00"
"16:14:57","90.1","70.2","52.1","29.97","334","3.1","8.4","0.00","0.00"
"16:19:56","89.9","70.2","52.5","29.97","335","2.8","7.2","0.00","0.00"
"16:24:56","90.1","70.5","52.7","29.97","345","2.5","7.2","0.00","0.00"
"16:29:56","90.1","71.3","54.2","29.97","328","3.5","8.4","0.00","0.00"
"16:34:56","90","70.7","53.3","29.97","324","4.1","12","0.00","0.00"
"16:39:57","89.7","69.6","51.9","29.97","336","4.8","8.4","0.00","0.00"
"16:44:57","89.4","69.7","52.4","29.97","339","2.2","8.1","0.00","0.00"
"16:49:57","89.8","70.7","53.5","29.97","337","3.3","6","0.00","0.00"
"16:54:57","90.1","70.2","52.1","29.97","345","1.7","5.8","0.00","0.00"
"16:59:41","90.2","69.9","51.6","29.97","341","3.9","8.4","0.00","0.00"
"17:04:57","90.1","70","51.7","29.97","340","1.6","6.9","0.00","0.00"
"17:09:57","90.2","69.7","51.2","29.97","343","3.2","7.2","0.00","0.00"
"17:14:57","90.3","69.6","51","29.98","331","2.4","7.2","0.00","0.00"
"17:19:58","90.4","70.2","51.8","29.98","331","2.6","6.9","0.00","0.00"
"17:24:56","90.3","69.9","51.3","29.98","334","4.5","8.4","0.00","0.00"
"17:29:55","90.2","70.2","52","29.98","331","2.3","6.9","0.00","0.00"
"17:34:57","90.2","70.4","52.3","29.98","0","1.1","3.6","0.00","0.00"
"17:39:57","89.9","69.6","51.4","29.98","338","4.1","8.4","0.00","0.00"
"17:44:58","89.7","69.9","52.4","29.98","341","3.3","7.2","0.00","0.00"
"17:49:57","89.6","70","52.7","29.98","338","2.3","7.2","0.00","0.00"
"17:54:59","89.5","69.4","51.8","29.98","332","2.4","5.8","0.00","0.00"
"17:59:56","89.5","69.5","51.9","29.98","341","2.4","4.8","0.00","0.00"
"18:04:56","89.6","69.8","52.2","29.98","341","2.4","6","0.00","0.00"
"18:09:57","89.7","70","52.4","29.98","337","2.1","4.8","0.00","0.00"
"18:14:59","89.6","69.4","51.5","29.98","335","2.4","6","0.00","0.00"
"18:19:57","89.4","69.7","52.3","29.98","340","1.6","6","0.00","0.00"
"18:24:59","89.1","69.7","53","29.98","342","2","7.2","0.00","0.00"
"18:29:56","88.5","69.7","53.9","29.98","334","3.8","8.4","0.00","0.00"
"18:34:57","87.9","69.7","54.9","29.98","323","2.7","6.9","0.00","0.00"
"18:39:56","87.7","69.8","55.5","29.98","343","2.1","6","0.00","0.00"
"18:44:58","87.5","70","56.2","29.98","340","1.4","4.8","0.00","0.00"
"18:49:59","87.3","70","56.6","29.98","333","1.4","6","0.00","0.00"
"18:54:57","87","69.8","56.8","29.98","331","1.4","4.8","0.00","0.00"
"18:59:58","86.7","69.7","57","29.98","332","0.8","2.4","0.00","0.00"
"19:04:59","86.4","69","56.3","29.98","328","1.4","7.2","0.00","0.00"
"19:09:59","86.1","69","56.7","29.98","327","1","3.6","0.00","0.00"
"19:14:58","85.9","68.9","57","29.98","327","1","3.6","0.00","0.00"
"19:19:44","85.8","69","57.4","29.98","327","0.6","3.5","0.00","0.00"
"19:24:58","85.6","68.7","57.2","29.98","327","0.8","6","0.00","0.00"
"19:29:55","85.4","69","58.1","29.98","327","1.2","6","0.00","0.00"
"19:34:57","85.2","69","58.6","29.98","328","1.2","4.8","0.00","0.00"
"19:39:57","84.9","69","58.8","29.98","329","0.6","2.4","0.00","0.00"
"19:44:59","84.7","68.9","59.2","29.98","329","0.9","3.6","0.00","0.00"
"19:49:58","84.4","68.7","59.5","29.98","329","0.4","2.4","0.00","0.00"
"19:54:56","84","68.6","60","29.98","329","0.9","3.6","0.00","0.00"
"19:59:58","83.6","68.7","61","29.99","329","0.8","2.4","0.00","0.00"
"20:04:58","83.1","68.7","62.1","29.99","329","0.3","2.4","0.00","0.00"
"20:09:59","82.5","68.7","63.2","29.99","329","0.1","1.2","0.00","0.00"
"20:14:56","82","68.7","64.3","29.99","329","0.3","1.2","0.00","0.00"
"20:19:58","81.4","68.8","65.5","29.99","329","0.1","1.2","0.00","0.00"
"20:24:57","81","68.8","66.7","29.99","329","0","0","0.00","0.00"
"20:29:59","80.5","68.8","67.6","30.00","329","0","0","0.00","0.00"
"20:34:57","80.2","69","68.7","30.00","329","0","0","0.00","0.00"
"20:39:57","79.7","68.9","69.6","30.00","329","0","0","0.00","0.00"
"20:44:56","79.2","69","71.1","30.01","329","0","0","0.00","0.00"
"20:49:57","78.6","68.8","72","30.01","329","0","0","0.00","0.00"
"20:54:58","78.2","68.8","73","30.01","329","0","0","0.00","0.00"
"20:59:58","77.8","68.5","73.3","30.01","329","0","0","0.00","0.00"
"21:04:57","77.6","68.7","74","30.01","329","0","0","0.00","0.00"
"21:09:57","77.7","68.8","74.4","30.01","329","0","0","0.00","0.00"
"21:14:59","77.5","68.9","75","30.02","329","0","0","0.00","0.00"
"21:19:56","77.2","68.7","75.2","30.02","329","0","0","0.00","0.00"
"21:24:57","76.9","68.9","76.3","30.02","329","0","2.4","0.00","0.00"
"21:29:58","76.7","68.9","77","30.03","329","0.9","2.4","0.00","0.00"
"21:34:58","76.7","69.2","77.8","30.03","329","0.4","1.2","0.00","0.00"
"21:39:56","76.7","69.3","78","30.03","329","0.2","2.4","0.00","0.00"
"21:44:56","76.4","69.1","78.1","30.03","329","0.5","2.4","0.00","0.00"
"21:49:57","76.1","69.1","79","30.03","329","0.2","2.3","0.00","0.00"
"21:54:58","75.9","69.2","79.6","30.03","329","0","0","0.00","0.00"
"21:59:58","75.8","69.2","80","30.03","329","0.8","2.4","0.00","0.00"
"22:04:58","75.7","69.3","80.7","30.03","329","0.1","1.2","0.00","0.00"
"22:09:57","75.4","69.2","81","30.03","329","0","1.2","0.00","0.00"
"22:14:59","75.3","69.4","82","30.04","329","0.5","2.4","0.00","0.00"
"22:19:56","75.3","69.8","82.9","30.04","329","1","2.4","0.00","0.00"
"22:24:56","75.4","69.7","82.5","30.04","329","0.9","2.4","0.00","0.00"
"22:29:57","75.4","69.5","82","30.04","329","0.4","2.4","0.00","0.00"
"22:34:58","75.4","69.8","82.9","30.04","329","0","1.2","0.00","0.00"
"22:39:56","75.2","69.7","83","30.04","329","0","1.2","0.00","0.00"
"22:44:57","75","69.5","83","30.04","329","0.1","1.2","0.00","0.00"
"22:49:57","74.8","69.6","83.8","30.04","329","0.5","2.4","0.00","0.00"
"22:54:58","74.7","69.5","84","30.04","329","0.1","1.2","0.00","0.00"
"22:59:59","74.6","69.4","84","30.04","329","0","0","0.00","0.00"
"23:04:59","74.5","69.3","84","30.04","329","0","0","0.00","0.00"
"23:09:58","74.4","69.3","84.2","30.04","329","0","0","0.00","0.00"
"23:14:56","74.3","69.5","85","30.04","329","0","1.2","0.00","0.00"
"23:19:57","74.2","69.6","85.5","30.04","329","0.5","2.4","0.00","0.00"
"23:24:58","74.2","69.7","85.9","30.04","329","0.1","1.2","0.00","0.00"
"23:29:59","74.1","69.6","85.9","30.04","329","0","0","0.00","0.00"
"23:34:56","74","69.5","86","30.04","329","0","1.2","0.00","0.00"
"23:39:58","74","69.8","86.9","30.04","329","1","2.4","0.00","0.00"
"23:44:58","73.9","69.8","87","30.04","329","1.2","2.4","0.00","0.00"
"23:49:59","73.7","69.6","87","30.04","329","0.3","2.3","0.00","0.00"
"23:54:56","73.5","69.4","87","30.04","329","0","1.2","0.00","0.00"
